Location: El Azufral
(10.3513°N, 67.1528°W)
Time: 08:43:38
(UTC+00:00)

Cosmos 2082 Rocket - Pass Details

Date: 13 June 2024
Orbit: 834 x 852 km, 71.0° (Epoch: 19 July)

Event Time Altitude Azimuth Distance (km) Brightness Sun altitude
Rises 23:32:29 0° 193° (SSW) 3,405 5.2 -10.2°
Reaches altitude 10° 23:34:56 10° 191° (SSW) 2,471 4.5 -10.7°
Maximum altitude 23:40:36 79° 106° (ESE) 868 2.1 -11.9°
Drops below altitude 10° 23:46:17 10° 19° (NNE) 2,470 4.7 -13.2°
Sets 23:48:43 0° 18° (NNE) 3,405 5.5 -13.7°
